Regional Weather Roundup
Issued by NWS

Home | Current Version | Previous Version | Graphics & Text | Print | Product List | Glossary On
Versions: 1 2 3 4 5 6 7 8 9 10 11 12 13 14 15 16 17 18 19 20 21 22 23 24 25 26 27
000
ASUS45 KBOI 231810
RWRID

IDAHO REGIONAL WEATHER ROUNDUP
NATIONAL WEATHER SERVICE BOISE ID
1200 PM MDT TUE MAY 23 2017

NOTE: "FAIR" INDICATES FEW OR NO CLOUDS BELOW 12000 FEET
WITH NO SIGNIFICANT WEATHER AND/OR OBSTRUCTIONS TO VISIBILITY

IDZ012-014-231900-
SOUTHWEST IDAHO


CITY           SKY/WX    TMP DP  RH WIND       PRES   REMARKS
BOISE          SUNNY     77  42  28 S6        30.10F
CALDWELL       SUNNY     78  45  30 SE13      30.08F
MOUNTAIN HOME  SUNNY     75  41  29 SE13G20   30.10F
$$

IDZ016-017-231900-
SOUTHCENTRAL IDAHO


CITY           SKY/WX    TMP DP  RH WIND       PRES   REMARKS
BURLEY         SUNNY     71  41  33 CALM      30.15F
JEROME         SUNNY     71  37  28 CALM      30.16F
TWIN FALLS     SUNNY     73  45  36 VRB5      30.16F
$$

IDZ019>023-231900-
SOUTHEAST IDAHO


CITY           SKY/WX    TMP DP  RH WIND       PRES   REMARKS
IDAHO FALLS    SUNNY     69  37  30 N3        30.19F
POCATELLO      MOSUNNY   69  43  38 NW6       30.18F
REXBURG        SUNNY     65  35  33 VRB3      30.19F
$$

IDZ006-010-011-018-031-032-231900-
CENTRAL IDAHO MOUNTAINS


CITY           SKY/WX    TMP DP  RH WIND       PRES   REMARKS
MCCALL         SUNNY     65  42  43 S6        30.16F
HAILEY         SUNNY     66  39  37 S9        30.22F
STANLEY          N/A     67  34  29 N6        30.25F
SALMON         SUNNY     64  43  45 CALM      30.11F
CHALLIS        SUNNY     66  39  37 VRB6      30.17F
$$

IDZ002-004-006-007-026-231900-
NORTHERN IDAHO


CITY           SKY/WX    TMP DP  RH WIND       PRES   REMARKS
LEWISTON       SUNNY     74  52  46 VRB3      29.98F
LOWELL           N/A     74  45  35 CALM      29.99F
COEUR D`ALENE  SUNNY     75  48  38 VRB5      30.01F
MULLAN PASS    SUNNY     61  36  39 VRB3      30.16F
$$




USA.gov is the U.S. government's official web portal to all federal, state and local government web resources and services.